TimeEDT,TemperatureF,Dew PointF,Humidity,Sea Level PressureIn,VisibilityMPH,Wind Direction,Wind SpeedMPH,Gust SpeedMPH,PrecipitationIn,Events,Conditions,WindDirDegrees,DateUTC
12:15 AM,55.4,51.8,88,30.00,7.0,Calm,Calm,-,N/A,,Scattered Clouds,0,2013-05-09 04:15:00
12:55 AM,53.6,50.0,88,30.00,7.0,Calm,Calm,-,N/A,,Clear,0,2013-05-09 04:55:00
2:15 AM,55.4,51.8,88,29.98,7.0,Calm,Calm,-,N/A,,Clear,0,2013-05-09 06:15:00
3:35 AM,55.4,51.8,88,29.95,5.0,Calm,Calm,-,N/A,,Overcast,0,2013-05-09 07:35:00
4:15 AM,55.4,53.6,94,29.95,4.0,NE,4.6,-,N/A,,Overcast,40,2013-05-09 08:15:00
4:35 AM,55.4,53.6,94,29.95,4.0,NNE,3.5,-,N/A,,Overcast,20,2013-05-09 08:35:00
5:15 AM,55.4,53.6,94,29.95,3.0,Calm,Calm,-,N/A,,Overcast,0,2013-05-09 09:15:00
6:15 AM,57.2,53.6,88,29.95,3.0,Calm,Calm,-,N/A,,Overcast,0,2013-05-09 10:15:00
6:45 AM,57.2,55.4,94,29.96,1.0,NE,3.5,-,N/A,,Overcast,40,2013-05-09 10:45:00
7:45 AM,55.4,55.4,100,29.96,1.0,NNE,4.6,-,N/A,,Overcast,20,2013-05-09 11:45:00
8:45 AM,57.2,55.4,94,29.97,1.0,Calm,Calm,-,N/A,Rain,Heavy Rain,0,2013-05-09 12:45:00
9:45 AM,57.2,55.4,94,29.96,2.0,Calm,Calm,-,N/A,Rain,Light Rain,0,2013-05-09 13:45:00
10:45 AM,59.0,57.2,94,29.96,3.0,North,3.5,-,N/A,,Overcast,10,2013-05-09 14:45:00
11:35 AM,60.8,57.2,88,29.96,5.0,Calm,Calm,-,N/A,,Overcast,0,2013-05-09 15:35:00
11:45 AM,60.8,57.2,88,29.96,5.0,North,4.6,-,N/A,,Overcast,350,2013-05-09 15:45:00
12:45 PM,62.6,57.2,82,29.94,7.0,NNW,5.8,-,N/A,,Mostly Cloudy,340,2013-05-09 16:45:00
1:55 PM,66.2,55.4,68,29.93,10.0,WNW,4.6,-,N/A,,Mostly Cloudy,300,2013-05-09 17:55:00
3:45 PM,68.0,53.6,60,29.90,10.0,Calm,Calm,-,N/A,,Mostly Cloudy,0,2013-05-09 19:45:00
4:45 PM,68.0,53.6,60,29.90,10.0,West,5.8,-,N/A,,Overcast,260,2013-05-09 20:45:00
5:45 PM,62.6,55.4,77,29.91,10.0,WNW,5.8,11.5,N/A,,Overcast,290,2013-05-09 21:45:00
6:45 PM,66.2,55.4,68,29.91,10.0,NW,3.5,-,N/A,,Scattered Clouds,310,2013-05-09 22:45:00
7:45 PM,64.4,55.4,73,29.92,10.0,SW,5.8,-,N/A,,Scattered Clouds,230,2013-05-09 23:45:00
8:45 PM,59.0,55.4,88,29.94,10.0,Calm,Calm,-,N/A,,Scattered Clouds,0,2013-05-10 00:45:00
9:45 PM,55.4,53.6,94,29.95,10.0,Calm,Calm,-,N/A,,Scattered Clouds,0,2013-05-10 01:45:00
10:55 PM,57.2,55.4,94,29.95,5.0,Calm,Calm,-,N/A,,Scattered Clouds,0,2013-05-10 02:55:00
11:15 PM,57.2,53.6,88,29.95,5.0,Calm,Calm,-,N/A,,Clear,0,2013-05-10 03:15:00
11:35 PM,55.4,53.6,94,29.95,5.0,Calm,Calm,-,N/A,,Clear,0,2013-05-10 03:35:00
11:55 PM,57.2,53.6,88,29.95,1.2,Calm,Calm,-,N/A,,Mist,0,2013-05-10 03:55:00